Regional Weather Roundup
Issued by NWS

Home | Current Version | Previous Version | Text Only | Print | Product List | Glossary Off
Versions: 1 2 3 4 5 6 7 8 9 10 11 12 13 14 15 16 17 18 19 20 21 22 23 24 25 26 27 28 29 30 31 32 33 34 35 36 37 38 39 40 41 42 43 44 45 46 47 48 49 50

000
ASUS45 KCYS 272110
RWRWY

WYOMING REGIONAL WEATHER ROUNDUP
NATIONAL WEATHER SERVICE CHEYENNE WY
300 PM MDT THU AUG 27 2015

NOTE:  "FAIR" INDICATES FEW OR NO CLOUDS BELOW 12,000 FEET
WITH NO SIGNIFICANT WEATHER AND/OR OBSTRUCTIONS TO VISIBILITY.

WYZ001-272200-
YELLOWSTONE NATIONAL PARK

CITY           SKY/WX    TMP DP  RH WIND       PRES   REMARKS
LK YELLOWSTONE   N/A     56  54  93 VRB6      30.41S
W YELLOWSTONE  NOT AVBL

$$
WYZ002>013-054>058-071-098>099-272200-
NORTHERN WYOMING

CITY           SKY/WX    TMP DP  RH WIND       PRES   REMARKS
JACKSON        FAIR      66  55  68 SW3       30.33F
CODY           FAIR      81  46  30 N6        30.15F
GREYBULL       FAIR      81  50  33 VRB5      30.10F
WORLAND        FAIR      79  58  48 VRB5      30.12F
SHERIDAN       FAIR      88  46  23 NW13      30.05F
BUFFALO        FAIR      84  42  22 NW10G16   30.13F
GILLETTE       FAIR      81  48  31 SW15G21   30.08F
HULETT         FAIR      79  50  36 NW3       30.09S
NEWCASTLE      FAIR      81  41  24 N7        30.08S

$$
WYZ014>020-022>026-101>103-272200-
CENTRAL WYOMING

CITY           SKY/WX    TMP DP  RH WIND       PRES   REMARKS
BIG PINEY      FAIR      79  40  24 N21G29    30.32S
PINEDALE       FAIR      73  45  35 NW22G29   30.32S
DUBOIS         FAIR      70  43  37 N16G24    30.29S
LANDER         FAIR      77  47  34 N15       30.19F
RIVERTON       FAIR      77  50  38 N9        30.20F
CASPER         CLOUDY    78  47  33 SW14      30.17F
DOUGLAS        CLOUDY    80  46  30 VRB5      30.14F

$$
WYZ021-027>030-104>119-272200-
SOUTHERN WYOMING

CITY           SKY/WX    TMP DP  RH WIND       PRES   REMARKS
EVANSTON       FAIR      73  49  42 VRB6      30.36F
KEMMERER       FAIR      75  41  29 NW21G29   30.36S
FORT BRIDGER   CLEAR     77  43  29 NW16G25   30.37F
ROCK SPRINGS   FAIR      78  42  27 W12G21    30.28F
DIXON          MOCLDY    78  48  35 W15G21    30.29F
RAWLINS        CLOUDY    68  55  63 SE7       30.29F
SARATOGA       CLOUDY    64  55  72 N6        30.32F
LARAMIE        CLOUDY    65  51  60 NW9       30.29F
CHEYENNE       PTSUNNY   74  48  39 NW15G22   30.19S
TORRINGTON     FAIR      83  52  34 N15       30.05S
PINE BLUFFS    FAIR      79  54  41 N20       30.12R

$$



USA.gov is the U.S. government's official web portal to all federal, state and local government web resources and services.